Temperature
0 0 0 0 0 0 -0 -0 -0 -1 -1 -1 -1 -1 -1 -2 -2 -2 -2 -2 -2 -3 -3 -3 -3 -3 -4 -4 -4 -4 -4 -4 -5 -4 -4 -4 -4 -3 -3 -3 -3 -3 -2
-0 -0 -0 -0 -1 -1 -1 -1 -1 -1 -1 -1 -2 -2 -2 -2 -2 -2 -3 -3 -3 -3 -3 -4 -4 -4 -4 -4 -4 -4 -5 -5 -5 -5 -5 -4 -4 -4 -4 -4 -4 -4 -3
-1 -1 -1 -1 -1 -1 -1 -1 -2 -2 -2 -2 -2 -2 -2 -3 -3 -3 -3 -3 -4 -4 -4 -4 -4 -4 -4 -4 -5 -5 -5 -5 -5 -5 -5 -5 -5 -5 -5 -4 -4 -4 -4
-2 -2 -2 -2 -2 -2 -2 -2 -2 -2 -3 -3 -3 -3 -3 -3 -3 -4 -4 -4 -4 -4 -4 -4 -5 -5 -5 -5 -5 -5 -5 -6 -6 -6 -6 -6 -5 -5 -5 -5 -5 -5 -5
-2 -2 -2 -2 -3 -3 -3 -3 -3 -3 -3 -3 -3 -4 -4 -4 -4 -4 -4 -4 -4 -5 -5 -5 -5 -5 -6 -6 -6 -6 -6 -6 -6 -6 -6 -6 -6 -6 -6 -6 -6 -5 -5
-3 -3 -3 -3 -3 -3 -3 -3 -4 -4 -4 -4 -4 -4 -4 -5 -5 -5 -5 -5 -5 -5 -5 -5 -6 -6 -6 -6 -6 -7 -7 -7 -7 -7 -7 -7 -6 -6 -6 -6 -6 -6 -6
-3 -4 -4 -4 -4 -4 -4 -4 -4 -4 -5 -5 -5 -5 -5 -5 -5 -5 -5 -5 -6 -6 -6 -6 -6 -6 -7 -7 -7 -7 -7 -7 -7 -7 -7 -7 -7 -7 -7 -7 -7 -7 -7
-4 -4 -5 -5 -5 -5 -5 -5 -5 -5 -5 -5 -5 -6 -6 -6 -6 -6 -6 -6 -6 -6 -6 -7 -7 -7 -7 -7 -7 -7 -7 -7 -8 -8 -8 -8 -8 -8 -8 -8 -8 -8 -8
-5 -5 -5 -5 -5 -5 -5 -5 -6 -6 -6 -6 -6 -6 -6 -6 -6 -7 -7 -7 -7 -7 -7 -7 -7 -7 -8 -8 -8 -8 -8 -8 -8 -8 -8 -8 -8 -8 -8 -8 -8 -9 -8
-5 -6 -6 -6 -6 -6 -6 -6 -6 -6 -7 -7 -7 -7 -7 -7 -7 -7 -7 -7 -7 -7 -8 -8 -8 -8 -8 -8 -8 -8 -8 -8 -8 -8 -8 -8 -8 -8 -8 -9 -9 -9 -9
-6 -6 -6 -6 -6 -7 -7 -7 -7 -7 -7 -7 -7 -8 -8 -8 -8 -8 -8 -8 -8 -8 -8 -8 -8 -9 -9 -9 -9 -9 -9 -9 -9 -9 -9 -9 -9 -9 -9 -9 -9 -9 -10
-7 -7 -7 -7 -7 -7 -7 -7 -8 -8 -8 -8 -8 -8 -8 -8 -8 -8 -8 -9 -9 -9 -9 -9 -9 -9 -9 -9 -9 -9 -9 -10 -10 -10 -10 -9 -9 -9 -9 -9 -9 -9 -10
-7 -7 -8 -8 -8 -8 -8 -8 -8 -8 -9 -9 -9 -9 -9 -9 -9 -9 -9 -9 -9 -9 -9 -9 -9 -9 -9 -9 -10 -10 -10 -10 -10 -10 -10 -10 -10 -10 -10 -10 -10 -10 -10
-8 -8 -8 -8 -8 -9 -9 -9 -9 -9 -9 -9 -10 -9 -9 -9 -9 -10 -10 -10 -10 -10 -10 -10 -10 -10 -10 -10 -10 -10 -10 -10 -11 -11 -11 -11 -11 -11 -11 -11 -11 -11 -10
-9 -9 -9 -9 -9 -9 -9 -9 -10 -10 -10 -10 -10 -10 -10 -10 -10 -10 -10 -10 -10 -10 -10 -10 -10 -10 -10 -10 -10 -10 -11 -11 -11 -11 -11 -11 -11 -11 -11 -11 -11 -11 -11
-9 -9 -9 -10 -10 -10 -10 -10 -10 -10 -10 -10 -10 -10 -10 -10 -10 -10 -10 -10 -10 -11 -11 -11 -11 -11 -11 -11 -11 -11 -11 -11 -11 -11 -11 -12 -12 -12 -11 -11 -11 -12 -12
-10 -10 -10 -10 -10 -10 -11 -11 -11 -11 -11 -11 -11 -11 -11 -11 -11 -11 -11 -11 -11 -11 -11 -11 -11 -11 -11 -11 -12 -12 -12 -12 -12 -12 -12 -12 -12 -12 -12 -12 -12 -12 -12
-10 -11 -11 -11 -11 -11 -11 -11 -11 -12 -11 -11 -11 -11 -11 -11 -11 -11 -11 -11 -11 -11 -12 -12 -12 -12 -12 -12 -12 -12 -12 -12 -12 -12 -12 -12 -12 -13 -13 -13 -13 -13 -12
-11 -11 -11 -12 -12 -12 -12 -12 -12 -12 -12 -12 -12 -12 -12 -12 -12 -12 -12 -12 -12 -12 -12 -12 -12 -12 -13 -13 -13 -13 -13 -13 -13 -13 -13 -13 -13 -13 -13 -13 -13 -13 -13
-12 -12 -12 -12 -12 -12 -13 -13 -13 -13 -13 -13 -13 -13 -13 -13 -13 -12 -12 -12 -13 -13 -13 -13 -13 -13 -13 -13 -13 -13 -13 -13 -13 -13 -13 -13 -13 -13 -13 -13 -13 -13 -13
-12 -13 -13 -13 -13 -13 -13 -13 -13 -14 -14 -14 -13 -13 -14 -14 -13 -13 -13 -13 -13 -13 -13 -13 -13 -13 -14 -14 -14 -14 -14 -13 -13 -13 -13 -13 -13 -13 -14 -14 -14 -14 -14
-13 -13 -13 -13 -13 -13 -14 -14 -14 -14 -14 -14 -14 -14 -14 -14 -14 -14 -14 -14 -14 -14 -14 -14 -14 -14 -14 -14 -14 -14 -14 -14 -14 -14 -14 -14 -14 -14 -14 -14 -14 -14 -14
-14 -14 -14 -14 -14 -14 -14 -14 -14 -14 -14 -14 -14 -14 -14 -14 -14 -14 -14 -14 -14 -14 -14 -14 -14 -14 -14 -14 -14 -14 -14 -14 -14 -14 -14 -14 -14 -14 -14 -14 -14 -14 -14
-14 -14 -14 -14 -14 -15 -15 -15 -15 -15 -15 -15 -15 -15 -15 -15 -15 -15 -15 -15 -15 -15 -15 -15 -15 -15 -15 -15 -15 -15 -15 -15 -15 -15 -15 -15 -15 -15 -14 -14 -14 -14 -14
-14 -14 -14 -15 -15 -15 -15 -15 -15 -15 -15 -15 -15 -15 -15 -15 -15 -15 -15 -15 -15 -15 -15 -15 -15 -15 -15 -15 -15 -15 -15 -15 -15 -15 -15 -15 -15 -15 -15 -15 -15 -14 -14
-14 -15 -15 -15 -15 -15 -15 -15 -15 -15 -15 -15 -15 -15 -15 -15 -15 -15 -15 -15 -15 -15 -15 -15 -15 -15 -15 -15 -15 -15 -15 -15 -15 -15 -15 -15 -15 -15 -15 -15 -15 -15 -15
Wind_Speed
6 5 5 4 4 5 4 4 4 4 4 4 4 4 3 3 2 2 2 1 1 0 0 0 1 1 1 1 2 2 2 2 5 5 3 4 5 6 9 11 12 12 11
6 5 5 4 4 4 4 4 4 4 4 4 3 3 3 3 2 2 2 1 1 1 1 1 1 1 1 2 1 2 3 3 4 6 5 4 5 6 7 8 10 10 10
5 5 5 5 4 4 4 4 4 4 4 3 3 3 3 2 2 2 2 1 1 1 1 1 1 1 2 2 2 3 3 3 3 4 6 5 5 5 6 7 8 7 9
5 5 5 4 4 4 4 4 3 3 4 3 3 3 2 2 1 1 1 1 1 1 1 1 2 2 2 3 3 3 3 3 4 4 5 5 5 5 4 5 5 4 5
5 4 4 4 4 4 4 3 3 3 3 3 2 2 1 1 1 1 1 1 1 1 1 2 2 3 4 4 4 3 3 3 4 4 5 5 5 4 5 4 6 5 5
5 4 4 4 4 3 3 3 3 2 2 2 2 2 1 1 2 2 1 1 1 1 2 2 3 4 6 7 7 7 6 5 5 5 5 6 6 5 5 6 5 6 5
5 4 4 4 4 3 3 3 3 2 2 2 2 1 1 1 2 2 2 1 2 2 2 3 3 4 5 4 6 8 8 9 8 6 6 6 6 6 6 6 6 6 7
4 4 3 3 3 3 3 2 2 2 2 2 2 1 1 1 2 3 3 2 2 3 3 3 3 3 4 4 4 4 5 6 8 6 5 6 7 7 6 6 6 6 6
4 3 3 3 3 3 2 2 2 2 1 1 1 1 1 2 3 3 3 2 2 3 4 3 4 4 7 7 4 4 5 6 8 9 10 11 12 13 10 5 5 5 7
3 3 2 2 2 2 2 1 1 1 1 1 0 1 1 2 3 4 3 2 2 3 3 4 6 6 8 8 4 4 5 6 5 6 7 9 9 10 12 6 4 5 6
3 3 2 2 2 2 1 1 1 1 1 1 1 1 1 2 3 4 4 1 2 3 3 3 4 7 8 9 7 4 7 7 4 4 5 5 5 5 6 7 6 5 6
3 3 2 2 1 1 2 1 1 1 1 1 1 1 1 2 3 3 4 4 4 2 3 3 4 7 9 9 7 8 10 8 3 3 4 4 4 5 5 7 8 8 9
3 2 2 2 1 1 1 1 1 1 1 1 1 1 1 1 2 4 5 5 6 4 3 6 7 8 8 7 8 10 8 4 3 4 5 5 4 5 6 6 7 8 10
2 2 2 2 1 1 0 0 1 1 1 1 1 2 2 2 1 2 2 4 5 5 4 6 8 9 7 7 6 6 4 3 4 4 5 5 4 4 5 4 5 5 6
2 2 2 1 1 1 0 0 1 1 2 2 2 2 2 2 4 5 3 3 2 4 3 2 3 3 3 3 3 3 3 3 4 4 4 5 5 5 6 5 5 5 6
2 2 1 1 0 1 0 1 2 2 3 3 3 3 3 5 7 7 7 7 7 7 4 2 3 3 4 4 4 4 4 4 4 4 4 5 5 6 6 6 5 5 7
1 1 1 1 1 1 1 1 1 3 4 4 5 5 5 7 7 7 7 7 7 6 3 3 3 4 4 4 4 4 5 4 4 4 5 5 5 6 6 6 6 6 7
1 1 1 1 1 1 1 1 1 2 2 3 4 6 7 8 8 7 7 5 4 4 3 3 4 4 4 4 5 5 5 4 4 5 5 5 5 6 6 6 6 7 8
1 0 1 1 1 1 1 1 2 2 2 3 3 4 7 7 7 7 6 2 3 3 3 3 4 4 4 4 5 5 5 5 5 5 5 6 5 5 6 7 7 11 9
1 2 2 1 1 1 1 1 2 2 3 3 3 3 3 4 3 4 3 3 3 4 4 4 4 4 4 4 5 5 5 6 6 6 6 6 6 6 7 8 7 7 7
1 2 3 2 1 1 1 2 2 2 3 3 3 5 6 3 3 4 4 4 4 4 4 4 4 5 5 5 5 6 6 6 6 6 6 6 6 6 6 7 7 7 7
1 1 1 1 1 2 2 2 2 3 3 4 4 5 8 4 3 4 4 4 4 4 5 4 5 5 5 5 5 6 6 6 6 6 6 6 6 6 7 7 7 7 7
1 1 2 2 2 4 3 2 3 3 4 4 4 4 4 4 4 5 5 5 5 5 7 7 6 6 8 9 9 7 7 7 7 7 7 7 7 7 7 7 8 9 8
1 2 2 2 2 2 3 3 3 4 4 4 5 5 5 5 5 6 6 5 6 7 8 8 8 9 11 11 11 11 12 13 12 11 10 8 8 8 8 8 8 9 9
1 2 2 2 3 3 3 4 4 4 5 5 5 5 5 5 6 6 6 6 7 7 9 10 10 11 12 14 14 14 15 17 16 13 11 9 9 9 9 9 9 9 10
2 2 3 3 3 4 4 4 5 5 5 5 6 6 6 6 6 6 6 6 7 8 9 10 12 13 15 15 15 17 18 19 19 18 13 9 8 8 8 8 9 9 10
Wind_Direction
140 138 134 135 133 132 137 139 139 133 131 139 141 137 135 133 122 119 127 124 124 112 5 339 292 297 297 296 295 292 288 280 280 294 301 309 312 310 311 311 310 307 308
136 135 134 132 128 128 132 133 133 137 134 136 138 141 147 144 134 142 151 145 157 205 265 276 288 304 302 293 292 287 282 279 278 291 300 303 298 302 302 304 311 311 308
127 131 132 134 135 136 134 131 133 139 139 137 140 146 149 149 150 155 164 167 190 219 236 251 273 285 289 295 292 282 281 287 284 284 292 297 294 297 302 303 305 307 309
129 133 136 141 141 138 134 131 134 138 141 143 147 148 149 154 163 169 173 171 196 233 247 263 274 267 269 276 278 275 277 283 285 283 287 292 292 296 303 304 301 299 303
131 132 131 127 126 125 127 129 128 132 137 140 139 138 146 167 179 168 199 211 220 250 264 271 274 275 280 281 281 278 277 272 274 277 284 293 296 304 305 303 300 302 289
130 130 125 124 125 126 128 128 128 135 140 139 148 154 174 197 209 224 246 252 257 254 269 275 276 273 281 287 291 292 289 277 273 273 281 284 289 292 300 298 297 302 296
125 126 125 126 131 131 129 131 142 152 151 155 163 161 184 210 227 242 259 284 267 263 265 275 281 286 292 289 291 295 296 293 287 276 270 275 284 288 291 290 283 285 286
123 125 126 127 131 130 130 139 146 148 164 174 173 184 199 230 248 258 268 281 265 266 265 265 271 281 281 286 288 293 288 291 289 287 270 274 282 283 277 281 285 291 291
123 123 125 129 134 137 143 148 146 148 157 167 168 187 197 253 268 263 269 272 271 271 272 271 272 269 277 281 284 285 291 294 293 290 290 294 296 295 293 297 293 293 295
128 126 124 127 133 141 148 145 143 150 160 167 208 209 210 237 270 273 274 268 277 284 285 284 281 279 283 286 277 270 282 289 294 301 301 300 299 299 298 290 278 280 289
110 109 111 115 129 141 142 141 140 144 137 180 236 263 251 252 268 274 278 280 282 288 292 292 288 291 292 292 291 273 276 290 291 289 290 292 291 289 290 286 278 268 271
101 106 111 115 119 120 135 137 134 153 174 212 227 259 256 258 275 278 284 285 289 282 286 291 291 294 296 296 297 292 293 298 293 288 289 289 291 292 293 290 284 277 270
98 110 115 103 95 103 138 154 162 177 190 234 230 247 275 284 280 287 292 293 292 290 283 291 297 298 298 297 294 295 298 294 286 282 285 285 285 288 292 293 290 287 283
106 109 107 106 100 101 157 178 169 196 211 249 259 266 275 285 281 290 292 296 296 295 293 292 296 298 297 296 299 302 296 284 284 278 283 285 290 291 291 294 293 296 293
91 86 80 85 99 87 56 294 253 234 232 234 242 251 260 268 277 287 292 286 281 274 288 284 286 291 293 292 291 288 288 296 295 292 290 293 293 293 292 291 286 287 285
81 68 61 63 66 72 73 1 334 311 299 291 286 284 282 283 287 289 291 293 294 295 295 289 281 278 280 287 288 286 282 282 279 279 283 286 289 292 295 295 289 285 284
88 55 31 27 31 9 352 334 330 329 321 313 305 301 297 301 302 301 300 298 298 303 300 289 280 277 280 284 284 282 278 275 273 273 275 279 282 284 288 291 293 291 288
67 8 1 357 343 319 306 300 295 300 310 313 311 306 307 308 308 306 309 310 304 299 285 281 285 288 286 284 285 286 284 283 278 276 274 275 275 277 281 285 285 285 287
6 344 330 315 300 297 303 304 302 304 300 300 308 314 315 316 314 310 310 297 287 287 285 285 284 285 288 290 287 285 282 280 279 278 275 274 274 274 276 278 279 283 285
309 314 327 318 309 315 317 311 307 303 302 300 296 298 308 316 313 314 312 300 285 284 284 282 283 282 282 282 287 288 286 280 277 274 275 275 274 271 272 274 277 279 280
308 309 320 323 311 303 301 294 292 293 294 296 293 295 302 299 290 291 292 289 282 281 284 284 282 282 280 280 281 283 284 284 282 278 277 276 276 276 276 275 275 276 279
299 296 298 293 296 291 289 285 288 288 290 293 296 300 307 306 291 284 285 287 284 280 279 280 282 279 278 276 277 278 279 280 281 280 278 277 275 274 275 277 278 279 280
294 299 301 296 289 291 303 297 287 284 285 287 290 291 293 291 289 286 285 285 286 286 285 282 281 283 284 281 277 272 274 276 277 277 277 278 277 276 273 273 275 278 279
278 276 275 279 281 278 281 282 281 282 282 282 284 286 286 284 283 285 286 286 286 285 285 284 282 282 284 285 283 279 276 278 278 273 269 269 272 273 272 272 273 273 275
273 276 279 276 277 277 279 279 278 278 280 283 283 284 283 282 282 283 284 284 285 285 285 286 285 285 286 285 284 283 285 288 287 282 271 264 266 268 268 267 269 273 273
278 279 278 276 274 274 275 278 279 279 279 280 280 279 279 279 280 281 282 281 283 284 285 286 284 285 286 286 286 287 290 291 291 289 283 271 269 271 269 268 267 268 270
Height
1475 1477 1480 1482 1484 1486 1488 1490 1491 1493 1495 1497 1498 1499 1500 1501 1502 1502 1503 1504 1504 1504 1505 1505 1505 1505 1505 1505 1505 1505 1505 1504 1502 1500 1500 1499 1499 1498 1497 1496 1494 1493 1492
1473 1475 1478 1480 1482 1483 1485 1487 1489 1491 1492 1494 1495 1496 1497 1498 1499 1499 1500 1501 1501 1501 1502 1502 1502 1502 1502 1502 1502 1502 1501 1501 1500 1497 1496 1496 1495 1494 1492 1491 1490 1489 1487
1471 1473 1475 1477 1479 1480 1482 1484 1486 1488 1489 1491 1492 1493 1494 1495 1496 1497 1497 1498 1498 1499 1499 1499 1499 1498 1498 1498 1498 1498 1497 1497 1496 1495 1493 1492 1491 1490 1488 1487 1486 1484 1483
1469 1471 1473 1475 1476 1478 1480 1481 1483 1485 1487 1488 1489 1490 1491 1492 1493 1494 1495 1495 1495 1496 1496 1495 1495 1495 1495 1494 1494 1494 1493 1493 1492 1491 1489 1488 1487 1485 1484 1482 1480 1479 1478
1468 1469 1471 1473 1474 1476 1477 1479 1481 1482 1484 1485 1486 1487 1488 1489 1490 1491 1492 1492 1492 1492 1492 1492 1491 1491 1491 1491 1490 1490 1489 1488 1488 1487 1485 1484 1482 1481 1480 1478 1476 1474 1473
1466 1467 1469 1471 1472 1474 1475 1477 1478 1480 1481 1482 1483 1484 1485 1486 1487 1488 1489 1489 1489 1488 1488 1488 1488 1488 1487 1487 1487 1486 1486 1485 1484 1483 1482 1480 1478 1477 1476 1474 1472 1470 1468
1464 1466 1467 1469 1470 1472 1473 1474 1476 1477 1478 1479 1480 1481 1482 1483 1484 1485 1485 1485 1485 1485 1485 1484 1484 1484 1483 1483 1482 1482 1481 1481 1481 1480 1478 1476 1475 1474 1472 1470 1469 1467 1465
1462 1464 1466 1467 1469 1470 1471 1472 1473 1474 1475 1476 1477 1478 1479 1480 1481 1481 1482 1482 1482 1481 1481 1481 1480 1480 1479 1479 1478 1477 1477 1476 1475 1475 1474 1472 1471 1469 1468 1467 1465 1462 1460
1461 1463 1464 1466 1467 1468 1469 1470 1471 1472 1473 1474 1474 1475 1476 1477 1478 1478 1478 1478 1478 1478 1477 1477 1477 1476 1476 1475 1474 1473 1472 1471 1471 1470 1468 1467 1466 1465 1464 1462 1460 1458 1454
1460 1461 1463 1464 1465 1466 1467 1468 1469 1470 1470 1471 1472 1473 1473 1474 1474 1475 1475 1475 1474 1474 1474 1473 1473 1472 1472 1471 1470 1469 1467 1466 1465 1464 1463 1462 1461 1460 1459 1458 1456 1454 1451
1458 1460 1461 1462 1463 1464 1465 1466 1467 1467 1468 1469 1469 1470 1470 1471 1471 1471 1471 1471 1471 1470 1470 1469 1469 1468 1468 1467 1466 1465 1463 1463 1461 1459 1458 1457 1456 1454 1453 1452 1451 1450 1447
1456 1458 1459 1460 1461 1462 1462 1463 1464 1465 1465 1466 1466 1466 1467 1468 1468 1468 1468 1468 1468 1467 1466 1466 1465 1464 1464 1463 1462 1460 1460 1458 1456 1455 1453 1452 1451 1449 1448 1447 1446 1444 1443
1455 1456 1457 1457 1459 1459 1460 1461 1461 1462 1462 1463 1463 1463 1464 1464 1465 1465 1464 1464 1464 1463 1463 1462 1461 1461 1460 1458 1457 1456 1455 1453 1452 1450 1448 1447 1446 1445 1443 1442 1440 1438 1437
1454 1454 1455 1456 1456 1457 1458 1459 1459 1459 1460 1460 1460 1461 1461 1461 1461 1461 1460 1460 1460 1459 1459 1458 1457 1456 1455 1454 1453 1451 1450 1449 1447 1446 1444 1443 1441 1440 1438 1436 1434 1432 1430
1452 1453 1453 1454 1455 1455 1456 1457 1457 1457 1458 1458 1458 1458 1457 1457 1457 1458 1457 1456 1456 1455 1454 1453 1452 1451 1450 1449 1448 1447 1445 1444 1443 1441 1440 1438 1436 1435 1433 1431 1429 1427 1425
1451 1451 1452 1452 1453 1453 1454 1455 1455 1456 1456 1455 1455 1455 1454 1455 1454 1454 1453 1453 1452 1452 1451 1449 1448 1447 1446 1444 1443 1442 1441 1439 1438 1437 1435 1434 1432 1430 1428 1426 1425 1423 1420
1450 1450 1450 1451 1451 1451 1452 1452 1452 1453 1453 1452 1452 1452 1451 1451 1450 1450 1449 1449 1448 1447 1446 1445 1443 1442 1441 1440 1439 1438 1436 1435 1434 1432 1431 1429 1427 1425 1424 1422 1420 1418 1416
1448 1449 1449 1449 1449 1449 1450 1450 1450 1449 1449 1448 1449 1448 1448 1447 1446 1446 1445 1444 1443 1443 1442 1440 1439 1438 1437 1435 1434 1433 1432 1430 1429 1427 1426 1424 1422 1421 1419 1417 1415 1413 1411
1447 1447 1447 1447 1447 1447 1447 1447 1447 1447 1446 1445 1445 1444 1444 1443 1442 1442 1441 1440 1439 1438 1437 1436 1435 1434 1432 1431 1430 1428 1427 1425 1424 1422 1421 1419 1417 1416 1414 1412 1410 1408 1406
1446 1446 1446 1445 1445 1445 1445 1445 1444 1444 1443 1442 1442 1441 1440 1439 1438 1437 1437 1436 1435 1434 1433 1432 1430 1429 1428 1426 1425 1423 1421 1420 1418 1417 1415 1414 1412 1410 1408 1406 1405 1403 1401
1444 1444 1444 1443 1443 1443 1442 1442 1442 1441 1440 1439 1438 1438 1437 1435 1434 1433 1432 1431 1430 1429 1428 1427 1425 1424 1423 1421 1420 1418 1416 1414 1413 1411 1410 1408 1407 1405 1403 1401 1399 1397 1395
1442 1442 1442 1441 1441 1440 1440 1439 1439 1438 1437 1436 1435 1434 1433 1432 1430 1429 1428 1427 1426 1425 1423 1422 1420 1419 1418 1416 1415 1413 1411 1409 1408 1406 1404 1403 1401 1400 1398 1396 1394 1392 1390
1440 1439 1439 1438 1438 1437 1437 1436 1435 1434 1433 1432 1431 1430 1429 1428 1426 1425 1424 1422 1421 1419 1418 1417 1415 1414 1413 1411 1410 1408 1406 1404 1403 1401 1399 1397 1395 1394 1392 1390 1388 1386 1384
1437 1437 1436 1435 1435 1434 1433 1432 1432 1431 1430 1429 1428 1426 1425 1424 1422 1420 1419 1417 1416 1414 1413 1411 1410 1408 1407 1405 1404 1402 1400 1399 1397 1395 1394 1391 1389 1388 1386 1384 1382 1380 1379
1435 1434 1433 1432 1432 1431 1430 1429 1428 1427 1426 1425 1423 1422 1421 1419 1417 1416 1414 1412 1410 1409 1407 1405 1404 1402 1400 1399 1397 1396 1394 1393 1391 1389 1387 1386 1384 1382 1380 1378 1376 1375 1373
1432 1431 1430 1429 1428 1427 1426 1425 1424 1423 1421 1420 1419 1417 1416 1414 1412 1410 1408 1406 1405 1403 1401 1399 1398 1396 1394 1392 1391 1389 1388 1386 1385 1383 1382 1380 1378 1376 1374 1372 1371 1369 1367